Wind_Speed
10 10 9 8 7 8 6 5 4 3 2 1 1 0 1 2 3 4 6 7 8 9 9 11 12 13 13 15 16 17 18 18 18 19 20 20 20 20
10 10 9 9 8 8 8 6 5 4 3 2 2 2 2 3 4 5 6 7 8 9 10 11 12 14 15 16 17 17 18 20 21 21 21 22 22 22
9 9 9 9 8 8 7 6 5 5 4 3 3 4 4 5 5 6 7 8 9 10 11 12 13 15 16 17 18 19 19 20 21 23 23 23 23 24
7 8 8 8 8 7 7 7 6 5 5 5 5 5 6 7 8 8 9 10 11 12 13 13 14 16 17 18 19 20 20 21 22 23 24 24 25 26
7 7 7 7 7 7 8 7 7 7 7 7 7 8 9 9 10 11 12 13 13 14 15 16 17 17 19 20 21 22 23 23 24 24 26 27 27 28
7 7 7 7 7 8 9 9 9 9 10 10 9 10 11 12 12 14 15 16 17 18 19 20 20 21 22 23 24 25 25 25 26 26 27 28 29 30
7 7 7 8 9 10 10 11 11 12 12 12 13 13 14 14 15 17 18 18 19 20 21 23 24 24 25 26 26 27 28 29 29 29 30 31 32 34
9 8 9 10 11 12 12 13 13 14 14 15 15 15 16 17 18 20 21 21 22 23 24 25 26 27 28 28 29 29 30 31 32 33 33 34 35 36
10 10 11 12 13 14 14 15 15 16 16 17 18 19 19 19 20 21 22 23 25 25 26 27 28 29 30 31 31 32 33 34 35 36 37 37 38 38
12 12 13 14 15 16 16 17 18 18 19 20 21 21 21 22 22 23 24 25 26 27 28 28 29 30 32 33 34 35 36 37 37 38 39 40 40 41
15 15 16 17 18 18 19 20 20 21 22 23 24 24 24 24 24 25 26 27 28 29 30 30 31 32 33 34 36 37 38 39 40 40 41 42 42 43
17 18 19 19 20 21 21 22 23 24 25 26 26 26 27 27 28 28 28 29 30 31 31 32 33 34 34 36 38 39 40 41 42 43 44 45 46 46
20 21 22 22 23 23 23 24 25 26 27 28 28 28 29 30 31 31 32 32 33 33 33 34 35 36 38 39 40 42 43 45 46 47 47 48 49 50
23 24 24 25 25 26 26 27 28 28 29 30 30 31 31 32 32 33 34 35 35 36 36 38 39 40 42 43 44 45 47 48 50 51 51 52 53 53
25 26 26 27 28 29 29 30 30 31 32 33 33 33 34 34 35 36 37 37 38 38 40 42 43 44 45 46 47 48 49 51 53 54 55 56 57 57
28 28 29 30 31 32 32 33 33 33 34 35 36 36 37 38 38 39 39 40 41 41 43 44 46 47 47 48 49 50 52 53 55 56 57 58 59 60
31 32 33 33 34 35 35 36 36 36 37 38 39 40 40 41 41 42 42 43 44 44 45 47 49 50 51 52 53 54 55 56 57 57 58 59 60 61
34 35 36 36 37 38 38 38 39 39 40 41 42 43 43 44 44 45 46 47 48 48 49 50 52 53 54 55 56 57 57 57 57 58 59 59 59 59
37 38 38 39 40 40 41 41 41 42 43 44 45 45 46 47 47 48 49 50 51 52 53 54 55 57 57 57 57 58 59 59 59 59 59 60 59 59
40 41 41 42 43 43 44 44 45 46 46 47 48 48 49 50 51 52 53 53 54 55 56 57 58 59 60 60 59 58 59 60 60 59 59 59 59 58
43 43 44 45 46 46 47 47 48 48 49 50 51 51 52 53 54 55 55 56 57 58 59 59 60 61 61 61 60 59 58 59 59 59 58 58 57 57
46 46 47 48 49 49 49 50 50 51 52 53 53 54 55 56 56 57 58 58 59 60 61 61 61 61 62 62 62 60 58 57 57 58 58 58 58 57
48 49 50 50 51 52 52 53 53 54 54 55 55 56 57 57 58 59 60 61 61 61 62 62 62 62 63 63 62 61 59 57 57 56 55 56 57 56
Wind_Direction
62 61 60 58 55 51 53 60 62 62 59 63 54 236 228 254 258 256 254 255 255 256 257 256 257 257 256 254 252 250 250 250 249 249 247 247 246 247
56 55 54 52 50 46 45 48 46 40 28 12 336 298 284 277 284 280 269 264 263 264 265 263 261 260 258 259 258 256 256 253 252 251 250 250 250 251
47 47 46 45 43 40 35 32 29 20 6 354 314 299 284 283 288 290 279 274 271 269 271 270 268 266 265 264 262 260 260 258 257 254 253 252 252 253
34 32 31 30 28 24 20 15 9 2 353 340 321 306 296 291 290 290 283 280 276 274 276 275 274 273 271 268 266 264 264 263 262 260 256 254 254 255
14 14 14 11 9 5 2 357 352 347 341 332 321 309 298 293 292 291 288 282 280 279 279 279 278 277 275 273 270 268 266 266 265 264 261 258 257 257
355 356 357 356 351 347 346 343 339 334 330 325 318 310 301 294 291 291 288 283 281 279 279 279 279 279 278 277 273 270 268 267 267 266 264 263 262 259
334 334 335 334 332 332 332 330 328 327 326 321 314 309 302 296 292 291 288 285 282 280 280 280 280 279 278 276 274 272 269 267 266 266 266 265 265 263
320 318 318 319 321 321 320 319 318 318 320 320 315 311 306 300 295 293 289 288 285 283 282 282 281 279 278 276 275 273 271 269 269 268 268 267 266 266
312 310 310 311 312 313 314 315 314 314 314 315 314 311 309 304 299 296 293 291 289 286 285 284 282 280 279 277 276 275 274 272 271 271 271 271 269 267
308 309 308 309 310 312 312 312 311 310 310 310 310 309 306 303 300 297 295 293 291 290 287 285 282 282 281 280 279 278 277 275 273 273 273 272 271 269
306 306 307 308 308 308 309 309 309 308 308 308 309 309 305 303 300 298 297 295 294 292 290 288 285 283 282 282 281 279 278 277 275 274 273 272 271 270
303 303 304 304 305 305 305 306 306 306 306 306 307 307 306 304 302 299 298 297 296 294 291 290 289 286 285 285 284 282 280 278 276 275 273 272 271 271
300 302 302 302 302 303 303 303 303 304 305 305 305 305 305 303 302 301 299 298 297 295 293 292 291 289 287 287 286 284 282 281 279 277 275 273 272 271
298 299 299 300 300 301 301 302 302 303 303 303 303 303 303 303 302 300 299 298 298 296 295 293 292 292 291 290 288 287 285 284 282 279 276 275 274 272
296 297 298 298 299 299 300 300 301 302 301 301 302 302 301 301 301 300 299 299 298 298 296 295 294 294 294 293 291 289 288 286 284 282 279 277 276 274
295 296 297 298 298 298 298 298 299 300 299 299 299 300 300 300 299 299 299 299 298 297 297 296 294 294 294 294 293 292 290 289 287 284 281 279 278 277
293 295 296 297 297 297 297 297 298 299 299 298 299 299 299 299 299 298 298 297 297 297 296 296 295 295 295 295 295 294 293 291 289 286 283 281 280 279
292 293 295 295 296 296 296 296 296 297 297 297 297 298 298 298 298 297 297 297 297 297 297 296 296 296 295 295 295 294 293 292 290 287 285 283 282 280
292 293 294 294 295 295 295 295 295 295 296 296 297 296 297 297 297 297 297 297 297 297 297 297 298 297 296 295 295 294 294 292 291 289 287 285 284 282
291 292 293 294 294 294 295 295 295 295 295 295 296 296 296 297 297 297 297 297 297 297 297 298 297 297 297 296 295 294 293 293 292 291 289 287 286 284
290 291 292 293 294 294 294 294 294 294 295 295 295 295 296 297 297 297 297 297 297 297 297 297 297 297 297 297 296 295 294 293 293 292 291 289 287 285
290 291 292 292 293 293 293 294 294 294 295 295 295 295 296 296 297 297 297 297 297 297 297 297 297 297 297 298 297 296 294 292 292 293 292 292 290 288
289 290 291 291 291 292 292 293 293 294 294 294 294 295 295 296 296 296 296 297 297 297 297 296 296 297 297 297 297 296 294 292 291 291 291 291 291 290
Height
5868 5868 5867 5866 5865 5865 5864 5863 5863 5863 5863 5862 5862 5862 5863 5863 5863 5863 5863 5864 5865 5865 5866 5867 5867 5868 5868 5869 5870 5871 5872 5873 5874 5875 5876 5877 5878 5879
5870 5869 5868 5867 5866 5866 5865 5864 5864 5863 5862 5862 5862 5861 5861 5861 5861 5861 5861 5862 5862 5863 5863 5864 5864 5864 5865 5865 5866 5867 5867 5868 5869 5870 5871 5871 5872 5873
5871 5870 5869 5868 5867 5866 5865 5864 5864 5863 5862 5862 5861 5860 5860 5860 5860 5859 5859 5859 5859 5860 5860 5860 5861 5861 5861 5861 5861 5862 5862 5863 5863 5864 5865 5865 5866 5867
5872 5871 5870 5869 5868 5867 5866 5864 5863 5862 5862 5861 5859 5859 5858 5858 5857 5857 5857 5857 5856 5856 5856 5856 5856 5856 5856 5856 5856 5857 5857 5857 5858 5858 5859 5859 5860 5861
5872 5871 5869 5868 5867 5866 5865 5864 5863 5861 5860 5858 5857 5856 5855 5855 5854 5854 5854 5853 5853 5853 5852 5852 5852 5851 5851 5851 5851 5850 5851 5851 5851 5852 5852 5852 5853 5853
5871 5870 5869 5868 5867 5865 5864 5863 5861 5860 5858 5856 5854 5853 5852 5851 5851 5850 5850 5849 5848 5848 5847 5847 5846 5846 5845 5845 5844 5844 5844 5844 5844 5844 5844 5845 5845 5845
5869 5868 5867 5866 5865 5864 5863 5861 5859 5858 5855 5853 5851 5850 5848 5847 5846 5846 5845 5844 5843 5842 5841 5840 5839 5838 5837 5837 5836 5836 5836 5836 5836 5836 5836 5836 5836 5836
5867 5866 5865 5864 5863 5862 5860 5858 5857 5855 5853 5851 5848 5846 5844 5842 5841 5840 5839 5838 5837 5836 5835 5833 5832 5830 5829 5829 5828 5827 5827 5827 5827 5826 5826 5825 5825 5825
5864 5863 5862 5861 5860 5858 5857 5855 5853 5851 5849 5847 5845 5842 5840 5837 5835 5834 5832 5831 5829 5828 5827 5825 5823 5822 5820 5819 5819 5818 5817 5817 5816 5816 5815 5814 5814 5813
5861 5860 5859 5858 5856 5855 5853 5851 5849 5847 5845 5843 5840 5837 5834 5831 5829 5827 5825 5823 5822 5820 5818 5817 5815 5813 5811 5810 5808 5807 5806 5806 5805 5804 5803 5802 5801 5801
5858 5857 5855 5854 5852 5850 5849 5847 5844 5842 5839 5837 5834 5831 5828 5825 5822 5820 5818 5815 5814 5811 5809 5808 5806 5805 5803 5801 5798 5796 5795 5794 5792 5791 5790 5789 5788 5788
5855 5853 5851 5849 5847 5845 5843 5841 5839 5836 5834 5831 5828 5825 5821 5818 5816 5813 5810 5808 5805 5803 5800 5798 5796 5794 5793 5792 5788 5786 5783 5781 5780 5778 5776 5775 5774 5773
5850 5848 5846 5844 5842 5840 5838 5835 5833 5830 5827 5824 5821 5818 5814 5811 5808 5805 5802 5799 5796 5793 5791 5788 5786 5783 5781 5780 5778 5774 5771 5769 5766 5763 5761 5760 5758 5757
5844 5842 5840 5838 5836 5834 5831 5829 5826 5823 5820 5817 5814 5811 5807 5804 5800 5796 5793 5790 5787 5784 5781 5778 5775 5772 5769 5766 5764 5761 5757 5754 5751 5748 5746 5743 5741 5739
5838 5836 5833 5831 5829 5827 5824 5821 5818 5815 5812 5809 5806 5802 5799 5795 5791 5788 5784 5781 5777 5774 5770 5766 5763 5759 5756 5752 5749 5745 5741 5738 5734 5730 5728 5726 5724 5721
5831 5828 5826 5824 5821 5819 5816 5813 5810 5807 5803 5800 5797 5793 5789 5785 5782 5778 5774 5770 5767 5763 5759 5754 5750 5746 5742 5738 5733 5729 5725 5720 5716 5712 5709 5707 5704 5701
5822 5820 5818 5815 5813 5810 5807 5803 5800 5797 5794 5790 5786 5783 5779 5775 5771 5767 5763 5759 5755 5751 5747 5742 5736 5731 5727 5723 5718 5713 5707 5703 5697 5693 5689 5687 5685 5681
5813 5811 5809 5806 5803 5800 5797 5793 5790 5786 5783 5779 5775 5771 5767 5763 5759 5755 5750 5746 5742 5738 5733 5727 5722 5717 5713 5708 5701 5694 5690 5684 5679 5674 5669 5666 5666 5662
5804 5801 5798 5795 5792 5789 5785 5782 5778 5775 5771 5767 5763 5759 5755 5750 5746 5742 5737 5732 5728 5723 5718 5711 5705 5699 5694 5692 5687 5678 5670 5665 5660 5656 5651 5646 5644 5642
5792 5790 5787 5783 5780 5777 5773 5769 5766 5762 5758 5754 5750 5746 5741 5736 5732 5727 5722 5717 5712 5707 5702 5695 5688 5681 5675 5670 5668 5664 5653 5645 5640 5635 5632 5627 5624 5621
5780 5777 5774 5771 5767 5764 5760 5756 5752 5748 5744 5740 5736 5731 5726 5722 5717 5712 5706 5701 5695 5690 5684 5679 5671 5663 5656 5650 5647 5644 5638 5628 5621 5615 5611 5607 5604 5601
5767 5764 5760 5757 5753 5749 5746 5742 5738 5734 5730 5725 5721 5716 5711 5706 5701 5695 5689 5684 5678 5672 5666 5660 5654 5646 5639 5632 5627 5622 5619 5613 5605 5598 5592 5586 5581 5580
5753 5750 5746 5742 5738 5735 5731 5727 5723 5718 5714 5709 5705 5700 5694 5689 5684 5678 5672 5666 5660 5654 5647 5642 5636 5629 5621 5614 5608 5603 5598 5593 5588 5583 5579 5571 5564 5560